sat.trackr.live / text

‹ back to catalog

AT&T T-16

NORAD 44333 · 2019-034A

PAYLOAD ACTIVE UNKNOWN

§ Identity

Operator
Country
US
Launch date
2019-06-20
Launch site
FRGUI
Launch vehicle
Mass (kg)
RCS (m²)

Purposes: comms

External: N2YO · Heavens-Above · Gunter

§ Orbital elements

Epoch: 2026-05-24T07:38:38.452704Z

Period
1,436.08 min
Inclination
0.0374°
Eccentricity
0.0000667
Mean motion
1.00272752 rev/d
Perigee alt
35,783.5 km
Apogee alt
35,789.1 km
Semi-major
42,164.5 km
B*
0.0000e+0
RAAN
109.3631°
Arg perigee
154.8504°
Mean anomaly
351.5192°
Rev number
2,539

§ Raw data

AT&T T-161 44333U 19034A   26144.31850061 -.00000120  00000+0  00000+0 0  99972 44333   0.0374 109.3631 0000667 154.8504 351.5192  1.00272752 25393

JSON: /api/v1/satellites/44333 · /tle

For live sub-satellite position, see the globe view (requires WebGL).

§ Visibility from observer

Set your observer location to see the next 7 days of passes ≥ 10°. The values pass through the URL so the page stays shareable.

No JS? Fill the form by hand. The geolocation button needs JavaScript.